[ ตารางข้อมูล ] [ Min-Max ] [ วันนี้4 ] [ วันนี้2 ] [ เทียบ3วัน A ] [ เทียบ4วัน B ]   

วันนี้2   [ ◀ ช่วงเก่ากว่า ] [ ช่วงที่ 313 ] [ ช่วงใหม่กว่า ▶ ] [ ล่าสุด ]    [ 3 ชั่วโมง ] [ 6 ชั่วโมง ] [ 12 ชั่วโมง ] [ 24 ชั่วโมง ]   วันนี้2

อุณภูมิตู้ Knockdown4529  ราย 3 ชั่วโมง  ที่วัดได้ ในช่วงวันเวลา 31/03/2026 (10:55) ถึง 31/03/2026 (13:55) 
ความชื้นในตู้ Knockdown4529  ราย 3 ชั่วโมง  ที่วัดได้ ในช่วงวันเวลา 31/03/2026 (10:55) ถึง 31/03/2026 (13:55) 

 
DS18B20SHTC3 
IDDate d/m/Y & Timedata1
สูง
data2
ต่ำ
data3
นอก
temp
pcb
hum
pcb
Time
 7518  31/03/2026 13:55:52  32.8  31.7  32.8  32.3  68.1  13:55 
 7517  31/03/2026 13:51:10  32.8  31.6  33.0  32.1  68.0  13:51 
 7516  31/03/2026 13:46:28  32.8  31.6  33.0  32.2  68.1  13:46 
 7515  31/03/2026 13:41:46  32.8  31.6  32.9  32.1  68.0  13:41 
 7514  31/03/2026 13:37:04  32.8  31.6  33.2  32.1  68.0  13:37 
 7513  31/03/2026 13:32:22  32.8  31.6  33.1  32.0  67.8  13:32 
 7512  31/03/2026 13:27:41  32.8  31.5  32.9  32.1  68.0  13:27 
 7511  31/03/2026 13:22:58  32.8  31.4  33.0  32.1  67.8  13:22 
 7510  31/03/2026 13:18:17  32.8  31.4  32.6  31.9  67.8  13:18 
 7509  31/03/2026 13:13:35  32.7  31.4  32.7  31.9  67.9  13:13 
 7508  31/03/2026 13:08:53  32.7  31.4  32.8  32.0  68.0  13:08 
 7507  31/03/2026 13:04:11  32.6  31.4  32.8  31.9  68.0  13:04 
 7506  31/03/2026 12:59:29  32.6  31.3  33.1  31.9  67.9  12:59 
 7505  31/03/2026 12:54:47  32.6  31.2  32.7  32.0  67.9  12:54 
 7504  31/03/2026 12:50:05  32.6  31.2  32.3  31.9  68.0  12:50 
 7503  31/03/2026 12:45:24  32.5  31.2  33.2  31.8  68.1  12:45 
 7502  31/03/2026 12:40:41  32.4  31.2  33.0  31.9  68.1  12:40 
 7501  31/03/2026 12:35:59  32.4  31.1  32.6  31.8  68.1  12:35 
 7500  31/03/2026 12:31:17  32.4  31.1  32.7  31.6  68.1  12:31 
 7499  31/03/2026 12:26:35  32.2  31.1  32.9  31.6  68.2  12:26 
 7498  31/03/2026 12:21:53  32.2  31.0  32.8  31.7  68.3  12:21 
 7497  31/03/2026 12:17:11  32.1  31.0  32.4  31.4  68.2  12:17 
 7496  31/03/2026 12:12:29  32.1  30.9  32.2  31.3  68.3  12:12 
 7495  31/03/2026 12:07:47  32.1  30.9  32.2  31.4  68.3  12:07 

Data every 5 minute.


ใช้เวลาประมวลผล 0.00189 วินาที